| time (UTC) | temp C | wind direction | speed KPH | gust KPH | rain 1hr cm | rain 24hr cm | rain mn cm | humidity % | barometer mb |
| 20260510120046 | 15 | 155 | 1.6 | 11.3 | 0.00 | 0.00 | 0.00 | 83 | 1016.4 |
| 20260510114542 | 13 | 0 | 0.0 | 8.0 | 0.00 | 0.00 | 0.00 | 88 | 1016.3 |
| 20260510113041 | 12 | 0 | 0.0 | 1.6 | 0.00 | 0.00 | 0.00 | 91 | 1015.8 |
| 20260510111553 | 12 | 0 | 0.0 | 3.2 | 0.00 | 0.00 | 0.00 | 91 | 1015.5 |
| 20260510110040 | 12 | 0 | 0.0 | 0.0 | 0.00 | 0.00 | 0.00 | 91 | 1015.4 |
| 20260510104605 | 12 | 0 | 0.0 | 3.2 | 0.00 | 0.00 | 0.00 | 91 | 1015.3 |
| 20260510103045 | 12 | 0 | 0.0 | 0.0 | 0.00 | 0.00 | 0.00 | 92 | 1015.4 |
| 20260510101542 | 12 | 0 | 0.0 | 1.6 | 0.00 | 0.00 | 0.00 | 92 | 1015.3 |
| 20260510100041 | 12 | 0 | 0.0 | 1.6 | 0.00 | 0.00 | 0.00 | 92 | 1015.0 |
| 20260510094542 | 12 | 0 | 0.0 | 1.6 | 0.00 | 0.00 | 0.00 | 91 | 1014.9 |
| 20260510093040 | 12 | 0 | 0.0 | 1.6 | 0.00 | 0.00 | 0.00 | 91 | 1014.8 |
| 20260510091539 | 12 | 0 | 0.0 | 1.6 | 0.00 | 0.00 | 0.00 | 91 | 1014.4 |
| 20260510090036 | 12 | 0 | 0.0 | 1.6 | 0.00 | 0.00 | 0.00 | 90 | 1014.5 |
| 20260510084543 | 13 | 0 | 0.0 | 0.0 | 0.00 | 0.00 | 0.00 | 90 | 1014.3 |
| 20260510083041 | 13 | 0 | 0.0 | 1.6 | 0.00 | 0.00 | 0.00 | 90 | 1014.0 |
| 20260510081543 | 13 | 0 | 0.0 | 3.2 | 0.00 | 0.00 | 0.00 | 89 | 1013.9 |
| 20260510080039 | 12 | 0 | 1.6 | 4.8 | 0.00 | 0.00 | 0.00 | 90 | 1014.4 |
| 20260510074540 | 12 | 0 | 0.0 | 0.0 | 0.00 | 0.00 | 0.00 | 90 | 1014.4 |
| 20260510073044 | 12 | 0 | 0.0 | 1.6 | 0.00 | 0.00 | 0.00 | 88 | 1014.2 |
| 20260510071542 | 13 | 227 | 0.0 | 1.6 | 0.00 | 0.00 | 0.00 | 87 | 1014.0 |
| 20260510070044 | 13 | 0 | 0.0 | 1.6 | 0.00 | 0.00 | 0.00 | 86 | 1013.9 |
| 20260510064540 | 14 | 0 | 0.0 | 1.6 | 0.00 | 0.00 | 0.00 | 84 | 1013.8 |
| 20260510063041 | 14 | 0 | 0.0 | 1.6 | 0.00 | 0.00 | 0.00 | 84 | 1014.0 |
| 20260510061541 | 14 | 0 | 1.6 | 6.4 | 0.00 | 0.00 | 0.00 | 85 | 1014.2 |
| 20260510060133 | 13 | 0 | 0.0 | 1.6 | 0.00 | 0.00 | 0.00 | 88 | 1014.0 |
| 20260510054541 | 13 | 0 | 0.0 | 0.0 | 0.00 | 0.00 | 0.00 | 87 | 1013.8 |
| 20260510053042 | 13 | 0 | 0.0 | 0.0 | 0.00 | 0.00 | 0.00 | 87 | 1013.8 |
| 20260510051559 | 14 | 0 | 0.0 | 3.2 | 0.00 | 0.00 | 0.00 | 87 | 1013.9 |
| 20260510050042 | 14 | 333 | 0.0 | 1.6 | 0.00 | 0.00 | 0.00 | 87 | 1013.5 |
| 20260510044544 | 14 | 0 | 0.0 | 0.0 | 0.00 | 0.00 | 0.00 | 86 | 1013.4 |
| 20260510043102 | 14 | 0 | 0.0 | 0.0 | 0.00 | 0.00 | 0.00 | 85 | 1013.5 |
| 20260510041550 | 14 | 0 | 0.0 | 4.8 | 0.00 | 0.00 | 0.00 | 85 | 1013.4 |
| 20260510040043 | 15 | 0 | 0.0 | 1.6 | 0.00 | 0.00 | 0.00 | 83 | 1013.2 |
| 20260510034544 | 15 | 0 | 0.0 | 1.6 | 0.00 | 0.00 | 0.00 | 83 | 1013.1 |
| 20260510033050 | 15 | 0 | 0.0 | 6.4 | 0.00 | 0.00 | 0.00 | 81 | 1013.1 |
| 20260510031608 | 15 | 0 | 0.0 | 0.0 | 0.00 | 0.00 | 0.00 | 78 | 1012.8 |
| 20260510030044 | 16 | 0 | 0.0 | 0.0 | 0.00 | 0.00 | 0.00 | 75 | 1012.5 |
| 20260510024545 | 17 | 0 | 0.0 | 0.0 | 0.00 | 0.00 | 0.00 | 74 | 1012.3 |
| 20260510023048 | 17 | 0 | 0.0 | 0.0 | 0.00 | 0.00 | 0.00 | 70 | 1011.9 |
| 20260510021544 | 18 | 0 | 0.0 | 0.0 | 0.00 | 0.00 | 0.00 | 68 | 1011.7 |
| 20260510020042 | 19 | 0 | 0.0 | 0.0 | 0.00 | 0.00 | 0.00 | 66 | 1011.4 |
| 20260510014544 | 20 | 0 | 0.0 | 0.0 | 0.00 | 0.00 | 0.00 | 66 | 1011.1 |
| 20260510013043 | 21 | 0 | 0.0 | 0.0 | 0.00 | 0.00 | 0.00 | 62 | 1010.9 |
| 20260510011554 | 22 | 0 | 0.0 | 0.0 | 0.00 | 0.00 | 0.00 | 58 | 1010.8 |
| 20260510010050 | 23 | 0 | 0.0 | 0.0 | 0.00 | 0.00 | 0.00 | 52 | 1010.7 |
| 20260510004540 | 25 | 0 | 0.0 | 1.6 | 0.00 | 0.00 | 0.00 | 46 | 1010.3 |
| 20260510003041 | 25 | 0 | 0.0 | 3.2 | 0.00 | 0.00 | 0.00 | 42 | 1010.3 |
| 20260510001544 | 26 | 0 | 0.0 | 4.8 | 0.00 | 0.00 | 0.00 | 40 | 1010.4 |
| 20260510000049 | 26 | 0 | 0.0 | 8.0 | 0.00 | 0.00 | 0.00 | 37 | 1010.3 |
| 20260509234542 | 26 | 5 | 1.6 | 6.4 | 0.00 | 0.03 | 0.00 | 35 | 1010.2 |
| 20260509233041 | 26 | 9 | 3.2 | 6.4 | 0.00 | 0.03 | 0.00 | 36 | 1010.2 |
| 20260509231546 | 27 | 51 | 3.2 | 8.0 | 0.00 | 0.03 | 0.00 | 35 | 1010.3 |
| 20260509230039 | 26 | 327 | 1.6 | 14.5 | 0.00 | 0.03 | 0.00 | 37 | 1010.2 |
| 20260509224544 | 27 | 331 | 4.8 | 19.3 | 0.00 | 0.03 | 0.00 | 36 | 1010.2 |
| 20260509223044 | 27 | 318 | 3.2 | 6.4 | 0.00 | 0.03 | 0.00 | 34 | 1010.2 |
| 20260509221543 | 28 | 163 | 0.0 | 6.4 | 0.00 | 0.03 | 0.00 | 32 | 1010.3 |
| 20260509220046 | 28 | 0 | 1.6 | 6.4 | 0.00 | 0.03 | 0.00 | 34 | 1010.4 |
| 20260509214541 | 27 | 0 | 0.0 | 8.0 | 0.00 | 0.03 | 0.00 | 32 | 1010.3 |
| 20260509213057 | 27 | 24 | 4.8 | 9.7 | 0.00 | 0.03 | 0.00 | 32 | 1010.4 |
| 20260509211606 | 28 | 88 | 1.6 | 9.7 | 0.00 | 0.03 | 0.00 | 32 | 1010.4 |
| 20260509210038 | 28 | 114 | 3.2 | 8.0 | 0.00 | 0.03 | 0.00 | 32 | 1010.6 |
| 20260509204557 | 27 | 173 | 3.2 | 14.5 | 0.00 | 0.03 | 0.00 | 33 | 1010.6 |
| 20260509203049 | 28 | 85 | 1.6 | 9.7 | 0.00 | 0.03 | 0.00 | 33 | 1010.7 |
| 20260509201540 | 27 | 0 | 1.6 | 16.1 | 0.00 | 0.03 | 0.00 | 34 | 1011.0 |
| 20260509200041 | 27 | 333 | 3.2 | 14.5 | 0.00 | 0.03 | 0.00 | 31 | 1011.2 |
| 20260509194543 | 27 | 133 | 1.6 | 8.0 | 0.00 | 0.03 | 0.00 | 37 | 1011.4 |
| 20260509193045 | 27 | 81 | 1.6 | 14.5 | 0.00 | 0.03 | 0.00 | 34 | 1011.4 |
| 20260509191542 | 27 | 20 | 3.2 | 11.3 | 0.00 | 0.03 | 0.00 | 33 | 1011.4 |
| 20260509190047 | 27 | 113 | 4.8 | 12.9 | 0.00 | 0.03 | 0.00 | 37 | 1011.4 |
| 20260509184540 | 26 | 303 | 8.0 | 17.7 | 0.00 | 0.03 | 0.00 | 35 | 1011.4 |
| 20260509183041 | 27 | 350 | 6.4 | 14.5 | 0.00 | 0.03 | 0.00 | 39 | 1011.4 |
| 20260509181540 | 26 | 290 | 4.8 | 12.9 | 0.00 | 0.03 | 0.00 | 38 | 1011.4 |
| 20260509180040 | 26 | 107 | 3.2 | 11.3 | 0.00 | 0.03 | 0.00 | 37 | 1011.4 |
| 20260509174541 | 26 | 279 | 3.2 | 14.5 | 0.00 | 0.03 | 0.00 | 36 | 1011.5 |
| 20260509173041 | 26 | 12 | 1.6 | 9.7 | 0.00 | 0.03 | 0.00 | 43 | 1011.5 |
| 20260509171541 | 26 | 0 | 3.2 | 11.3 | 0.00 | 0.03 | 0.00 | 40 | 1011.7 |
| 20260509170041 | 26 | 71 | 3.2 | 11.3 | 0.00 | 0.03 | 0.00 | 41 | 1011.9 |
| 20260509164547 | 26 | 74 | 1.6 | 9.7 | 0.00 | 0.03 | 0.00 | 43 | 1011.7 |
| 20260509163056 | 25 | 159 | 3.2 | 14.5 | 0.00 | 0.03 | 0.00 | 47 | 1011.8 |
| 20260509161542 | 25 | 70 | 1.6 | 14.5 | 0.00 | 0.03 | 0.00 | 49 | 1011.7 |
| 20260509160041 | 25 | 168 | 1.6 | 9.7 | 0.00 | 0.03 | 0.00 | 51 | 1011.7 |
| 20260509154542 | 24 | 103 | 1.6 | 9.7 | 0.00 | 0.03 | 0.00 | 54 | 1011.6 |
| 20260509153038 | 23 | 0 | 0.0 | 6.4 | 0.00 | 0.03 | 0.00 | 57 | 1011.6 |
| 20260509151546 | 22 | 0 | 3.2 | 8.0 | 0.00 | 0.03 | 0.00 | 61 | 1011.6 |
| 20260509150049 | 21 | 0 | 1.6 | 6.4 | 0.00 | 0.03 | 0.00 | 70 | 1011.7 |
| 20260509144544 | 20 | 290 | 3.2 | 6.4 | 0.00 | 0.03 | 0.00 | 77 | 1011.6 |
| 20260509143045 | 20 | 273 | 1.6 | 4.8 | 0.00 | 0.03 | 0.00 | 80 | 1011.6 |
| 20260509141544 | 18 | 67 | 0.0 | 3.2 | 0.00 | 0.03 | 0.00 | 82 | 1011.5 |
| 20260509140046 | 17 | 0 | 0.0 | 3.2 | 0.00 | 0.03 | 0.00 | 89 | 1011.5 |
| 20260509134549 | 15 | 232 | 0.0 | 4.8 | 0.00 | 0.03 | 0.00 | 95 | 1011.5 |
| 20260509133053 | 14 | 232 | 1.6 | 4.8 | 0.00 | 0.03 | 0.00 | 99 | 1011.6 |
| 20260509131544 | 13 | 342 | 1.6 | 3.2 | 0.00 | 0.03 | 0.00 | 99 | 1011.5 |
| 20260509130044 | 11 | 0 | 0.0 | 0.0 | 0.00 | 0.03 | 0.00 | 99 | 1011.4 |
| 20260509124543 | 10 | 0 | 0.0 | 1.6 | 0.00 | 0.03 | 0.00 | 98 | 1011.5 |
| 20260509123041 | 9 | 0 | 0.0 | 0.0 | 0.00 | 0.03 | 0.00 | 98 | 1011.4 |
| 20260509121547 | 8 | 0 | 0.0 | 1.6 | 0.00 | 0.03 | 0.00 | 98 | 1011.3 |